Theta_e
303 304 304 304 304 304 304 304 305 304 304 305 305 306 307 307 307 302 295 300 298 293 293 296 296 292 291 291 285 290 290 291 290 283 285 286 285 287 286 288 286 289 290 289 290 288 286 304 303 297 300 302 306 305
303 303 303 303 303 304 304 304 304 305 305 305 305 306 307 307 308 306 297 299 302 296 293 298 298 299 298 296 293 292 290 289 291 286 288 289 287 287 286 283 292 286 289 290 292 291 300 303 301 303 308 304 306 306
302 303 303 303 303 303 303 304 304 305 305 306 306 307 307 307 307 304 299 296 299 296 293 289 291 298 300 300 301 289 291 295 294 295 292 290 286 292 287 288 289 292 296 291 293 298 297 301 302 303 308 309 311 308
302 302 302 302 302 303 303 303 304 305 305 306 307 307 308 308 307 305 299 295 298 297 289 288 298 295 301 301 300 298 295 296 295 296 293 290 287 294 289 290 290 293 296 293 294 297 298 301 301 302 302 309 313 313
301 302 302 302 302 303 303 303 304 304 305 306 307 307 307 307 306 302 297 298 301 295 288 288 295 297 297 300 299 299 297 294 292 289 289 287 291 292 292 293 291 297 293 290 291 298 296 298 301 303 302 302 311 313
301 301 302 302 302 302 303 303 304 304 306 307 307 306 306 307 305 295 290 299 301 299 289 284 294 295 298 300 299 296 296 294 292 289 288 290 295 293 288 287 295 298 301 301 297 302 300 300 303 304 302 303 309 313
300 301 301 302 302 302 303 303 304 305 305 306 307 306 306 306 297 292 291 297 301 298 290 287 287 296 298 300 298 295 294 293 292 289 288 289 289 293 288 283 291 296 300 301 303 303 298 300 300 303 304 304 306 313
300 301 301 302 302 302 302 303 304 305 305 306 306 306 306 305 301 294 296 302 302 294 293 286 285 290 299 292 291 295 292 291 290 289 290 288 289 290 286 291 295 296 297 298 301 303 302 302 303 302 304 304 305 309
300 301 301 301 302 302 302 303 304 305 305 305 307 307 300 295 292 296 308 304 299 295 287 289 285 284 298 295 295 294 293 287 291 286 287 288 286 283 289 290 292 294 295 295 299 302 302 300 301 301 302 302 302 305
300 301 301 301 301 302 302 303 304 304 304 307 302 299 294 298 307 305 298 294 293 295 291 288 292 285 292 292 291 291 291 290 287 288 291 286 284 292 293 294 293 294 295 296 294 295 300 300 301 302 303 303 302 304
300 301 301 301 301 302 302 304 304 303 304 297 293 293 297 305 299 295 290 290 292 291 294 294 294 291 297 289 288 291 287 288 282 287 287 287 287 292 295 295 295 295 295 295 298 298 300 303 302 303 303 303 304 305
300 301 301 301 301 302 303 303 302 297 295 296 298 299 297 297 292 289 284 289 290 288 294 293 294 294 294 294 288 289 285 286 281 290 286 285 291 295 295 295 296 296 296 296 298 299 301 302 304 304 305 303 304 309
300 300 300 300 301 302 303 301 302 302 302 301 297 296 290 288 282 285 281 284 287 290 293 293 291 294 292 291 288 287 284 282 290 284 284 287 293 294 294 295 296 297 298 298 299 301 302 305 303 305 305 304 306 306
299 300 300 300 301 302 301 301 301 301 298 295 291 280 283 282 284 289 285 287 292 291 293 292 291 290 292 287 287 284 284 288 283 281 282 289 291 295 296 298 297 297 299 299 299 301 302 305 301 305 306 306 305 305
299 300 300 300 302 300 300 300 301 300 299 294 290 280 283 289 291 292 293 290 292 293 292 290 289 290 285 286 287 285 280 280 283 283 286 292 295 297 298 298 298 298 299 299 301 301 302 304 301 303 305 306 306 308
298 299 298 301 299 299 299 299 301 303 301 296 293 287 290 289 289 290 290 290 292 293 293 290 285 284 283 282 284 282 282 282 285 286 293 296 298 298 299 300 299 301 303 301 301 302 304 305 304 305 308 309 311 310
297 291 299 298 298 299 299 298 303 302 296 293 288 292 291 290 289 289 290 291 292 291 287 289 283 282 284 279 278 285 285 286 291 294 296 297 298 299 300 301 302 301 302 303 302 302 303 306 305 304 303 307 311 313
291 292 297 298 297 297 300 303 301 298 293 292 289 290 291 292 290 290 292 293 292 291 290 288 290 282 279 280 282 287 290 294 296 296 298 298 298 300 302 301 303 302 302 303 304 304 303 302 301 301 304 305 308 309
294 296 298 299 297 292 294 300 300 291 293 294 293 292 291 290 293 294 295 294 294 294 292 290 287 283 283 290 289 291 293 294 294 295 297 300 298 299 302 303 303 302 303 303 303 304 304 304 304 305 305 305 306 306
298 298 297 298 298 294 296 296 300 293 289 292 294 291 290 290 292 293 292 293 292 291 289 287 287 289 289 292 293 295 294 295 295 294 294 296 297 297 299 301 301 302 303 304 303 300 304 303 306 307 305 303 305 305
295 296 297 296 296 295 296 296 293 293 293 293 293 292 291 292 291 290 291 293 291 288 287 290 290 291 294 294 296 296 295 296 294 294 294 292 298 296 297 300 302 301 302 302 302 302 302 303 304 307 306 306 306 308
291 297 293 297 293 296 294 298 294 293 291 292 291 292 288 285 288 290 293 290 290 291 290 291 292 292 294 295 296 296 297 297 296 297 296 296 297 295 295 296 299 298 300 301 302 302 302 303 305 306 305 305 303 303
294 294 292 295 293 291 289 295 290 291 288 289 289 288 287 286 289 293 289 291 292 295 293 292 295 295 295 298 297 297 298 297 295 295 296 296 296 296 296 296 296 295 296 300 302 302 303 296 299 305 305 304 303 303
297 292 289 287 289 284 292 289 291 288 287 285 283 286 287 288 290 287 286 287 291 293 293 294 294 291 292 295 293 293 294 297 297 298 297 295 295 296 296 295 296 298 297 298 299 301 302 303 299 302 303 302 301 301
284 281 282 276 286 287 287 286 286 284 286 286 285 286 286 288 282 286 286 287 291 291 292 293 292 292 290 290 293 294 294 294 296 295 297 297 296 298 298 295 295 296 297 297 297 298 299 301 302 302 301 299 299 299
277 279 279 283 283 284 284 283 284 284 286 285 286 287 286 284 284 284 287 290 290 291 292 292 291 291 291 291 291 291 292 293 293 292 294 296 298 293 292 292 292 293 297 299 299 300 298 298 300 301 300 300 294 300
274 276 282 290 287 289 285 286 287 285 285 283 283 283 282 281 283 288 291 293 292 292 293 293 290 289 288 288 291 293 293 294 294 295 297 297 297 297 295 292 292 294 297 299 300 300 298 298 297 297 297 298 299 299
281 282 280 283 285 285 284 282 284 284 287 289 288 284 283 284 284 290 292 294 294 294 295 293 290 288 288 290 292 292 291 292 295 296 294 295 297 296 297 296 295 288 296 295 297 299 300 298 297 295 294 293 293 294
281 282 284 281 282 283 283 284 285 288 292 289 284 284 287 291 292 291 293 294 295 292 288 287 289 295 295 294 293 291 290 290 290 289 287 285 287 291 294 296 295 295 298 293 286 290 293 294 294 293 292 290 291 290
281 286 282 282 282 281 285 287 287 289 290 290 290 290 291 292 292 295 295 294 292 291 291 291 292 293 292 291 290 290 291 289 288 286 285 284 285 287 289 292 294 295 297 296 295 294 288 292 289 291 289 287 286 286
287 285 282 282 283 286 288 289 290 290 290 291 291 289 287 290 291 294 293 294 295 294 292 291 291 291 290 289 288 287 286 285 285 284 284 285 286 287 288 288 290 294 295 295 293 292 291 288 286 284 285 285 286 285
285 284 283 281 283 287 289 287 287 288 288 287 286 286 287 287 286 289 292 292 292 291 287 291 291 291 292 291 288 285 283 282 282 282 282 282 283 284 286 289 291 293 292 291 290 289 287 285 283 282 282 281 281 280
285 286 285 284 281 283 286 286 284 283 283 281 286 287 287 287 286 289 293 291 292 291 290 290 290 290 290 287 285 283 282 282 281 280 280 279 279 280 283 286 290 290 289 287 286 285 284 283 282 281 281 280 280 280
Wind_Speed
21 21 22 22 23 23 24 23 23 22 22 21 22 20 19 16 10 1 5 5 4 4 12 8 5 8 8 4 3 4 4 2 3 3 1 2 2 3 3 3 5 5 5 2 4 5 2 19 6 5 6 5 10 11
22 22 23 23 23 23 24 24 24 23 22 21 22 20 18 16 11 6 3 3 3 5 10 14 18 21 16 20 4 3 3 3 2 2 3 3 2 1 5 1 5 2 4 6 5 3 12 6 11 8 9 6 4 13
23 23 23 24 25 24 24 24 24 24 23 21 21 20 18 16 12 4 5 4 3 3 8 2 6 9 7 14 10 4 3 5 3 4 1 3 4 2 2 2 4 5 7 4 12 2 20 13 22 21 20 13 14 7
23 23 24 25 25 26 25 25 25 25 24 20 20 19 16 14 10 5 3 2 1 4 5 8 5 9 15 4 14 12 7 3 2 1 1 3 4 1 3 5 3 4 3 7 10 11 20 7 22 19 22 18 17 16
22 24 24 25 26 26 26 26 26 26 24 21 20 18 15 13 8 7 4 5 6 2 4 8 14 7 7 5 11 13 10 5 0 2 3 4 4 2 1 2 3 5 4 2 4 12 7 14 19 18 21 21 15 11
22 24 25 25 27 27 27 27 27 27 25 22 21 17 13 9 4 2 4 2 5 4 1 5 5 6 6 6 5 8 7 5 4 4 4 4 5 4 3 4 4 4 6 6 6 9 13 15 12 14 16 20 18 9
22 24 25 26 26 28 28 28 29 28 27 23 18 13 9 3 2 3 5 4 2 1 1 5 5 5 6 4 3 3 0 3 4 3 3 3 3 1 2 3 3 8 12 11 8 6 13 5 12 16 16 20 21 9
22 24 26 26 26 27 28 29 29 29 30 27 19 11 7 2 2 5 5 9 5 2 1 4 6 5 7 4 4 2 3 3 2 4 2 2 4 0 3 8 12 9 9 3 7 11 12 9 14 17 13 15 19 14
21 24 26 27 26 26 27 28 29 30 32 29 17 2 4 3 1 5 2 7 1 3 2 3 3 4 5 3 3 5 3 3 3 1 2 4 2 3 8 14 14 15 11 11 15 10 7 7 12 16 14 13 15 15
22 23 25 27 26 26 26 26 27 29 32 21 5 3 3 4 2 6 4 2 3 2 1 2 1 4 3 2 2 4 3 3 3 2 4 2 2 5 12 12 12 15 17 15 10 4 6 4 8 9 17 7 9 11
23 24 25 26 27 26 25 24 24 27 9 5 5 3 4 12 2 1 2 2 3 3 3 4 6 5 2 2 3 3 3 3 3 3 6 4 2 10 13 15 14 13 14 15 13 13 13 8 6 11 12 5 11 10
23 25 26 26 27 26 22 21 22 7 2 3 5 5 4 3 3 3 2 4 1 4 4 4 7 2 2 2 2 3 2 3 3 4 3 2 2 12 15 19 18 15 15 17 15 13 12 11 9 12 10 3 11 5
23 26 27 27 27 24 21 22 21 17 10 1 2 3 3 3 7 5 5 6 4 3 5 5 5 2 1 1 2 2 3 3 4 2 2 3 10 14 16 16 13 19 19 16 16 14 12 12 11 14 14 8 8 3
22 26 28 27 26 19 25 26 22 11 2 2 2 5 4 4 2 5 5 5 7 4 6 4 1 3 1 4 3 3 3 2 4 4 4 5 13 17 17 11 11 19 17 15 13 11 11 11 9 15 14 9 6 3
21 25 31 22 16 27 28 29 25 2 3 3 2 3 3 5 5 5 6 3 5 3 4 4 3 3 3 4 4 5 8 5 4 4 4 11 18 14 16 16 16 16 12 8 8 7 9 10 7 7 11 10 6 9
21 23 6 14 25 30 31 21 3 3 3 3 4 1 4 2 6 4 3 4 4 4 3 4 4 4 4 2 6 2 6 4 4 4 9 11 12 14 16 16 21 18 7 5 6 6 6 6 1 5 6 6 9 4
15 6 12 23 29 32 24 4 2 4 5 3 4 3 4 4 6 5 3 4 2 4 3 2 3 2 1 3 3 1 2 5 9 10 9 11 9 10 13 15 17 18 14 11 7 5 2 1 2 4 3 4 4 6
6 7 23 27 20 14 3 3 3 3 4 4 2 6 3 4 3 4 3 2 2 1 2 2 3 3 2 1 4 4 5 6 7 5 4 8 7 8 11 14 15 17 17 16 11 9 7 6 4 2 1 3 5 4
13 15 26 30 9 5 4 5 3 4 5 3 3 3 3 4 4 3 3 3 3 2 3 3 2 1 3 4 5 5 4 4 4 7 4 6 4 7 8 9 11 14 15 17 15 8 6 7 5 5 3 1 5 4
24 24 24 22 5 3 5 6 2 3 3 5 2 3 3 4 4 3 3 1 3 3 1 2 4 4 4 4 3 3 3 3 4 4 6 5 5 6 8 9 8 9 9 9 9 12 8 8 6 4 3 3 6 7
9 4 8 2 3 5 4 4 5 5 4 4 3 3 4 3 3 3 3 2 2 3 3 4 4 4 4 2 2 1 2 4 3 2 4 4 4 4 5 7 8 6 6 7 8 8 7 9 9 7 7 6 8 5
5 8 4 4 4 5 5 6 5 3 1 4 3 3 3 2 3 4 2 2 3 4 4 4 3 2 1 2 0 1 3 5 5 4 9 5 4 4 4 5 6 7 7 7 6 7 7 5 7 9 10 9 7 8
7 4 4 4 5 5 8 1 4 5 4 4 2 2 3 2 4 1 2 4 4 5 4 3 3 4 4 3 2 3 4 4 3 3 4 4 4 4 5 5 5 5 8 8 6 6 8 9 4 6 7 8 9 11
6 3 4 5 6 6 3 4 4 3 2 0 2 5 4 4 1 1 4 4 4 2 4 4 2 2 2 2 0 1 2 2 5 5 3 4 4 4 3 4 4 6 5 5 5 6 6 6 8 7 5 7 7 9
2 8 4 7 5 4 5 4 4 2 5 4 4 3 3 2 1 2 5 4 3 3 4 3 1 3 3 2 1 2 3 2 1 2 5 4 4 3 3 4 4 4 5 6 6 6 6 7 8 11 12 9 8 8
7 7 9 6 4 5 5 3 4 6 5 5 6 3 2 3 2 5 3 2 3 4 4 4 2 2 2 4 4 2 1 2 4 4 4 4 6 4 3 4 4 5 6 4 5 6 6 6 8 11 11 13 13 12
7 7 5 4 3 3 2 3 3 3 4 5 4 4 3 3 4 4 1 1 3 1 3 4 5 5 4 3 2 3 3 5 5 0 3 4 4 6 7 6 5 3 5 5 5 6 5 6 8 8 9 10 11 10
8 4 6 4 4 2 2 2 3 5 5 5 3 4 9 7 5 3 4 4 4 4 4 4 3 3 4 5 5 4 5 4 5 4 2 4 4 4 7 8 11 7 4 5 5 6 7 6 7 8 9 9 8 9
5 4 4 5 4 4 6 7 7 6 5 2 1 4 2 2 2 0 3 1 2 3 1 3 4 7 8 6 5 5 4 4 5 7 7 4 5 6 6 5 8 10 4 6 10 9 12 9 8 8 9 8 7 7
5 6 5 4 5 7 6 7 5 5 6 9 7 6 8 11 4 3 3 7 6 4 4 4 2 6 6 8 7 8 7 6 6 5 4 3 3 4 5 5 5 6 5 5 5 6 8 8 7 8 9 7 6 7
4 6 4 5 5 7 10 7 5 5 7 5 6 6 7 4 3 7 7 5 9 8 8 8 8 7 6 5 5 5 4 4 5 6 4 2 3 3 4 4 4 4 5 5 5 6 8 8 6 6 8 9 10 9
6 8 5 5 6 10 6 5 5 5 2 1 3 2 2 4 4 2 6 4 7 8 5 6 8 6 5 6 6 6 7 4 4 4 6 4 4 4 5 5 5 4 7 6 7 9 11 9 7 7 8 10 10 10
6 6 6 4 2 3 5 3 3 2 2 3 3 4 4 5 5 3 2 5 1 7 5 4 5 6 8 7 6 6 6 6 6 5 6 7 8 7 5 5 5 7 10 8 8 9 11 12 9 10 10 10 9 10
Wind_Direction
332 331 329 328 328 327 325 325 325 327 327 327 328 326 322 317 315 316 257 194 219 257 284 259 219 254 300 245 246 289 327 344 311 344 143 311 210 145 162 229 315 283 318 221 188 229 97 348 301 104 278 279 183 190
333 333 329 329 327 327 325 325 325 322 318 323 325 323 318 313 301 316 259 261 228 245 276 282 269 262 246 235 222 267 229 218 232 290 2 289 264 161 162 268 141 303 18 309 322 350 309 293 52 339 352 296 233 181
332 332 330 328 327 327 326 326 325 321 316 323 321 319 316 309 301 259 276 269 280 262 285 345 254 268 257 211 182 182 246 215 209 201 303 293 272 339 234 239 109 211 273 263 333 348 324 354 7 8 6 348 335 264
330 329 329 328 327 326 327 327 324 319 316 324 323 322 321 308 295 260 247 213 303 272 294 278 291 303 290 199 190 201 222 277 103 179 256 288 229 194 6 1 302 185 268 344 267 331 328 2 4 1 349 352 350 347
329 328 328 327 326 326 327 326 323 319 317 327 331 331 331 326 311 290 227 230 208 210 272 286 303 253 272 238 196 209 219 224 250 269 162 231 293 25 17 151 271 196 191 184 290 322 285 305 328 333 344 347 349 348
327 326 326 328 328 327 327 325 321 318 318 324 330 334 328 322 332 13 342 294 189 180 312 301 291 292 307 255 249 226 223 202 178 202 225 236 210 138 162 265 295 115 164 208 250 260 284 298 314 327 332 344 343 340
324 325 324 326 328 328 328 324 320 319 320 322 322 319 311 304 121 173 201 234 149 70 264 293 283 275 313 313 308 319 193 193 158 217 251 252 283 157 248 239 215 204 201 206 209 280 290 312 327 328 341 342 336 326
322 323 322 323 328 329 328 324 320 323 322 322 319 296 256 178 236 311 256 239 152 181 223 268 278 339 7 316 326 309 336 353 292 202 332 243 338 99 249 322 337 299 267 249 214 198 272 313 313 321 334 348 341 352
320 322 322 322 326 329 329 325 322 325 323 322 324 65 93 70 267 240 103 94 58 140 259 276 324 304 331 273 315 335 9 341 295 12 269 98 284 288 357 343 339 331 339 337 319 204 186 286 296 320 318 347 331 336
319 320 321 321 324 328 328 325 324 328 323 316 35 24 339 226 169 100 23 29 18 274 302 317 291 272 285 287 351 339 339 337 324 205 271 190 150 117 9 350 324 317 310 320 334 314 194 187 281 316 304 326 287 337
317 318 319 320 320 325 325 323 331 332 345 14 7 300 286 298 64 23 327 34 333 298 217 237 231 285 51 335 345 16 338 325 327 355 341 329 356 340 337 324 326 307 300 295 279 263 280 171 228 259 268 287 314 324
316 317 317 319 318 319 318 323 336 346 280 279 313 288 296 347 9 40 337 323 330 268 282 248 307 141 90 78 34 13 338 322 298 351 301 262 259 321 321 318 302 298 291 285 286 284 282 271 209 239 249 255 275 261
316 314 315 317 318 315 319 327 332 318 297 134 212 276 43 305 33 20 330 299 269 249 261 303 317 117 90 46 89 18 339 296 301 287 285 277 302 308 304 303 298 300 298 293 283 279 270 271 231 217 226 216 250 271
315 313 311 314 310 313 329 327 329 336 313 242 204 328 122 313 244 203 216 233 251 229 286 283 308 80 47 19 353 336 287 325 330 314 306 298 304 312 307 295 291 318 301 283 266 264 274 275 222 203 209 215 221 224
315 313 307 302 313 333 325 323 319 232 167 246 116 255 235 229 252 246 254 276 282 263 320 358 27 68 12 50 6 340 357 6 352 302 269 303 318 304 324 329 320 312 300 274 255 245 259 282 238 207 193 185 221 236
322 315 263 330 334 323 318 320 295 165 233 211 215 175 260 37 282 301 284 277 281 299 10 49 34 39 7 87 18 348 324 305 296 255 288 309 325 331 331 328 339 351 2 295 254 222 239 273 320 127 103 117 127 123
320 241 294 325 322 316 309 266 264 225 220 236 267 216 198 232 228 233 223 260 293 41 328 59 48 225 354 36 348 233 288 269 286 293 295 302 305 325 336 336 338 349 1 12 357 348 294 313 38 67 48 65 62 119
248 286 305 305 325 308 274 241 255 251 258 244 199 253 243 218 233 278 239 263 74 312 351 233 131 69 154 315 296 247 244 258 271 290 291 293 317 310 344 348 350 346 357 7 8 11 10 39 56 33 2 97 86 70
285 294 295 298 297 305 299 276 195 239 243 249 257 265 227 251 251 224 197 240 190 161 89 32 85 171 208 213 227 267 279 265 327 320 302 294 331 323 331 353 351 354 360 8 14 11 13 20 11 353 343 175 108 63
292 289 286 288 218 235 266 262 206 217 247 236 224 267 229 228 247 225 223 220 141 96 60 188 201 217 201 248 229 248 261 272 298 319 321 324 325 343 325 347 352 346 351 358 354 2 9 24 25 11 30 19 76 77
302 269 310 262 226 221 260 267 263 218 234 219 229 177 251 316 294 262 220 185 108 180 218 216 212 236 216 205 221 201 305 20 327 305 294 316 316 351 351 350 359 356 12 356 356 354 8 22 353 38 45 49 59 32
252 282 282 243 241 224 235 228 219 261 314 241 283 191 227 248 262 256 199 119 206 224 187 177 215 198 207 112 310 357 273 355 350 340 1 349 8 347 342 330 348 350 8 10 353 358 4 356 1 34 32 32 54 54
283 223 222 248 260 239 254 146 212 200 224 253 35 187 259 235 226 52 220 206 211 209 190 173 165 127 143 159 127 324 351 6 342 358 351 346 323 334 9 348 347 357 357 360 357 25 20 353 34 64 72 54 31 24
218 263 240 234 209 258 271 255 222 222 223 53 186 219 234 215 218 105 238 225 240 167 141 136 131 76 51 348 38 260 265 279 332 359 4 13 331 319 17 349 346 5 1 335 342 22 35 32 26 36 40 64 76 76
216 257 173 260 265 266 239 251 229 203 227 212 199 256 273 77 117 252 265 250 208 194 168 151 184 179 172 259 272 312 4 115 106 5 328 345 348 337 357 344 349 350 347 8 2 16 10 28 43 56 41 23 42 54
227 249 186 212 234 199 227 237 225 228 239 226 221 212 82 128 209 242 239 217 174 153 154 168 144 117 188 172 158 120 10 14 59 33 318 23 35 23 359 359 0 338 347 4 8 21 35 30 44 53 56 45 32 48
237 253 245 232 239 261 302 312 351 4 286 231 204 153 131 188 245 243 211 2 121 191 186 168 161 161 186 175 133 132 105 73 90 37 5 53 37 45 39 352 326 301 337 6 21 27 39 66 63 57 51 55 46 47
227 249 213 217 216 198 230 264 241 209 244 246 129 186 168 184 225 239 205 199 188 162 150 210 207 159 139 125 140 104 68 69 64 43 11 40 32 28 27 8 357 340 40 26 28 40 47 58 66 74 73 65 52 37
225 225 195 245 215 213 215 203 210 224 194 138 39 296 279 195 257 19 311 289 189 123 188 136 64 102 95 82 67 63 67 68 87 84 74 30 6 10 3 15 348 353 24 63 35 53 63 61 63 65 66 66 65 63
239 188 199 228 206 219 216 207 223 227 217 226 219 236 274 276 353 350 51 63 17 36 53 29 32 103 112 105 90 64 42 52 58 89 102 53 354 319 335 1 24 2 351 30 59 53 53 63 48 60 62 54 47 50
224 173 216 213 239 242 243 247 252 266 252 208 203 192 229 162 65 24 22 45 98 91 84 72 62 50 64 61 94 102 85 27 41 45 52 39 359 345 340 344 355 2 42 65 74 67 74 67 62 61 65 63 56 56
190 204 213 221 245 257 267 223 224 192 247 176 248 176 68 79 99 42 7 325 100 93 90 106 111 109 101 82 66 58 79 97 62 33 27 24 10 347 339 355 356 43 59 59 65 77 71 62 58 61 68 67 66 61
206 215 215 241 279 241 252 175 200 209 179 182 227 197 169 130 136 135 71 11 17 116 114 97 89 78 87 105 110 111 108 98 87 61 51 45 38 25 21 8 35 62 80 76 75 80 82 82 73 67 62 58 56 58